GEFSSE_prec_meanprecacc_240.txt.gz
Total_Precipitation_Accumulation
2.29 1.87 3.07 3.15 2.89 2.59 2.37 2.39 2.54 2.55 2.58 2.49 2.36 2.09 1.92 1.83 1.69 1.64 1.58 1.46 1.39 1.45 1.72 1.87 1.75 1.71 1.53 1.49 1.50 1.50 1.50 1.48 1.51 1.39 1.29 1.25 1.20 1.29 1.45 1.62 1.90 2.24 1.85
1.59 1.54 2.70 3.08 2.97 2.74 2.62 2.59 2.54 2.54 2.54 2.38 2.22 2.09 1.87 1.68 1.61 1.59 1.50 1.52 1.44 1.38 1.54 1.76 1.80 1.82 1.71 1.68 1.74 1.74 1.62 1.50 1.57 1.55 1.58 1.60 1.40 1.37 1.33 1.48 1.91 2.18 1.70
1.35 1.40 2.14 3.04 2.95 2.65 2.63 2.62 2.49 2.44 2.37 2.15 2.00 1.85 1.73 1.57 1.51 1.54 1.54 1.55 1.48 1.38 1.49 1.71 1.89 1.96 1.90 1.92 1.94 1.87 1.76 1.70 1.66 1.65 2.07 2.54 1.95 1.57 1.52 1.49 1.57 1.61 1.61
1.10 1.20 1.69 2.47 2.42 2.34 2.34 2.24 2.17 2.05 1.92 1.95 1.92 1.74 1.65 1.57 1.59 1.63 1.59 1.51 1.43 1.36 1.44 1.64 1.83 1.82 1.85 1.93 1.87 1.83 1.75 1.77 1.84 1.75 2.08 2.52 2.38 1.91 1.75 1.70 1.56 1.56 1.71
0.94 1.14 1.72 2.26 2.20 2.20 2.14 1.95 1.94 1.79 1.67 1.68 1.73 1.65 1.65 1.55 1.52 1.54 1.53 1.51 1.50 1.48 1.50 1.62 1.66 1.68 1.80 1.87 1.79 1.77 1.78 1.92 1.92 1.63 1.72 2.10 2.59 2.24 1.82 1.80 1.70 1.71 1.80
1.05 1.12 1.49 1.96 1.96 1.95 1.87 1.81 1.79 1.68 1.68 1.60 1.54 1.54 1.59 1.54 1.48 1.43 1.50 1.47 1.44 1.63 1.76 1.74 1.74 1.84 1.83 1.88 1.84 1.86 1.92 1.91 1.74 1.75 1.86 2.12 2.46 2.21 1.73 1.57 1.67 1.80 1.87
0.98 0.98 1.22 1.75 1.75 1.71 1.71 1.74 1.79 1.73 1.71 1.60 1.50 1.55 1.67 1.61 1.52 1.47 1.53 1.53 1.47 1.60 1.82 1.80 1.75 1.78 1.75 1.82 1.85 1.79 1.86 1.83 1.72 1.85 1.96 2.20 2.19 2.05 1.68 1.51 1.67 1.78 1.86
1.09 1.00 1.11 1.67 1.78 1.66 1.70 1.67 1.70 1.77 1.72 1.60 1.51 1.48 1.55 1.54 1.46 1.46 1.46 1.56 1.56 1.61 1.75 1.76 1.67 1.66 1.53 1.55 1.62 1.62 1.71 1.58 1.42 1.57 1.82 2.15 2.30 2.11 1.62 1.46 1.47 1.63 1.80
1.36 1.30 1.34 1.49 1.56 1.68 1.71 1.63 1.78 1.90 1.80 1.60 1.45 1.41 1.36 1.41 1.40 1.38 1.40 1.53 1.55 1.58 1.67 1.68 1.63 1.65 1.53 1.45 1.51 1.59 1.67 1.49 1.31 1.55 1.53 1.98 2.37 2.18 1.75 1.50 1.43 1.58 1.70
1.31 1.27 1.32 1.42 1.42 1.44 1.54 1.74 1.93 2.25 2.14 1.75 1.49 1.32 1.31 1.26 1.26 1.37 1.34 1.45 1.52 1.58 1.70 1.74 1.75 1.67 1.63 1.54 1.57 1.66 1.59 1.27 1.25 1.28 1.50 1.82 2.42 2.22 1.76 1.50 1.37 1.38 1.43
0.99 1.05 1.16 1.23 1.25 1.33 1.31 1.52 1.94 2.33 2.35 1.94 1.59 1.45 1.24 0.94 0.93 1.15 1.32 1.54 1.65 1.71 1.85 1.95 1.92 1.80 1.65 1.57 1.58 1.59 1.31 1.03 1.25 1.33 1.60 2.01 2.31 2.18 1.79 1.52 1.35 1.34 1.27
0.79 0.75 0.78 0.82 0.93 1.02 1.02 1.32 1.62 1.67 1.86 1.60 1.52 1.40 1.26 1.20 1.14 0.99 1.13 1.55 1.79 1.78 1.87 1.97 1.99 1.74 1.40 1.25 1.31 1.31 1.06 0.99 1.11 1.22 1.55 2.18 2.50 2.30 1.82 1.53 1.43 1.40 1.27
0.74 0.70 0.64 0.65 0.72 0.86 0.98 1.16 1.37 1.52 1.67 1.65 1.58 1.52 1.54 1.52 1.19 1.05 1.12 1.26 1.43 1.50 1.45 1.53 1.57 1.38 1.19 1.14 1.20 1.08 0.93 0.92 1.01 1.14 1.57 2.22 2.62 2.45 1.92 1.58 1.53 1.50 1.46
0.63 0.72 0.67 0.53 0.55 0.63 0.73 0.92 1.09 1.30 1.49 1.52 1.33 1.25 1.39 1.43 1.25 1.14 1.28 1.33 1.39 1.46 1.50 1.49 1.41 1.25 1.04 1.04 1.14 1.11 0.96 0.96 1.02 1.11 1.45 1.82 2.27 2.44 2.22 1.89 1.81 1.70 1.70
0.62 0.70 0.73 0.64 0.58 0.61 0.67 0.75 0.79 1.09 1.25 1.38 1.43 1.21 1.31 1.37 1.31 1.21 1.19 1.35 1.33 1.39 1.42 1.47 1.49 1.35 1.24 1.16 1.17 1.13 1.15 1.07 1.01 1.00 1.25 1.39 1.62 2.10 2.37 2.33 2.24 2.01 1.89
0.59 0.67 0.70 0.71 0.69 0.69 0.70 0.70 0.69 0.76 0.84 0.92 0.88 0.85 1.03 1.18 1.20 1.21 1.12 1.19 1.27 1.43 1.63 1.68 1.51 1.42 1.36 1.32 1.33 1.28 1.24 1.15 1.09 0.98 1.14 1.22 1.15 1.37 1.84 2.36 2.59 2.39 2.20
0.55 0.62 0.67 0.72 0.78 0.79 0.80 0.85 0.81 0.75 0.77 0.75 0.70 0.71 0.81 0.93 1.02 1.14 1.19 1.17 1.20 1.43 1.67 1.83 1.68 1.55 1.40 1.40 1.40 1.38 1.28 1.26 1.17 1.06 1.15 1.30 1.15 1.11 1.45 2.02 2.53 2.66 2.52
0.55 0.53 0.55 0.57 0.65 0.70 0.75 0.81 0.89 0.89 0.87 0.84 0.85 0.81 0.77 0.90 1.04 1.16 1.24 1.20 1.21 1.40 1.65 1.87 1.91 1.88 1.78 1.69 1.59 1.50 1.43 1.52 1.37 1.24 1.25 1.35 1.48 1.33 1.31 1.53 1.94 2.36 2.56
0.48 0.42 0.41 0.45 0.47 0.50 0.55 0.63 0.76 0.84 0.90 0.97 0.98 0.97 0.98 1.05 1.08 1.20 1.40 1.43 1.41 1.53 1.64 1.68 1.80 1.81 1.86 1.85 1.65 1.60 1.52 1.63 1.69 1.56 1.60 1.61 1.65 1.63 1.46 1.26 1.39 1.63 2.11
0.39 0.39 0.39 0.41 0.39 0.38 0.42 0.52 0.65 0.72 0.79 0.98 1.05 1.09 1.36 1.50 1.31 1.27 1.42 1.45 1.48 1.68 1.75 1.85 2.05 1.98 1.87 1.95 1.77 1.67 1.63 1.63 1.65 1.77 1.87 1.83 1.77 1.67 1.64 1.42 1.46 1.40 1.68
0.25 0.24 0.29 0.32 0.38 0.37 0.32 0.38 0.52 0.65 0.77 0.92 1.10 1.14 1.36 1.49 1.42 1.44 1.46 1.48 1.51 1.61 1.69 1.87 2.22 2.23 2.02 1.90 2.10 2.10 2.00 1.79 1.71 1.75 1.79 1.94 1.95 1.77 1.74 1.73 1.63 1.52 1.41
0.23 0.18 0.19 0.22 0.30 0.37 0.40 0.45 0.60 0.79 0.91 1.03 1.21 1.26 1.35 1.38 1.38 1.32 1.48 1.58 1.55 1.69 1.77 1.96 2.26 2.48 2.23 2.02 2.36 2.82 2.59 2.30 1.95 1.71 1.68 1.64 1.80 1.81 1.68 1.56 1.50 1.50 1.45
0.16 0.13 0.17 0.24 0.38 0.53 0.69 0.92 1.18 1.48 1.65 1.57 1.46 1.52 1.62 1.68 1.63 1.58 1.66 1.78 1.70 1.75 1.86 1.92 2.03 2.51 2.65 2.39 2.33 2.89 2.77 2.57 2.52 1.98 1.56 1.41 1.61 1.75 1.75 1.64 1.55 1.61 1.61
0.20 0.26 0.35 0.47 0.63 0.78 0.98 1.21 1.47 1.73 1.93 1.97 2.02 2.06 2.02 1.96 1.84 1.72 1.75 1.79 1.80 1.87 1.84 1.71 1.88 2.34 2.82 2.87 2.65 2.44 2.27 2.24 2.44 2.32 1.74 1.42 1.49 1.62 1.78 1.66 1.62 1.70 1.74
0.37 0.50 0.61 0.83 0.99 1.12 1.18 1.27 1.49 1.59 1.68 1.80 1.97 2.03 2.04 1.98 1.86 1.70 1.65 1.74 1.79 1.87 1.86 1.92 2.10 2.40 2.69 2.97 2.95 2.69 2.37 2.13 1.77 1.96 1.94 1.72 1.47 1.38 1.45 1.54 1.65 1.69 1.72
0.66 0.89 1.01 1.12 1.22 1.20 1.18 1.19 1.32 1.46 1.56 1.66 1.83 1.90 1.85 1.74 1.71 1.63 1.60 1.60 1.57 1.65 1.74 1.93 2.17 2.31 2.50 2.75 2.83 2.56 2.38 2.25 2.04 1.89 1.73 1.78 1.75 1.46 1.31 1.29 1.39 1.53 1.57

GEFSSE_prec_meanprecacc_246.txt.gz
Total_Precipitation_Accumulation
2.30 1.88 3.14 3.24 2.95 2.64 2.43 2.46 2.61 2.60 2.64 2.56 2.42 2.16 1.97 1.89 1.89 1.89 1.75 1.55 1.45 1.51 1.78 1.93 1.81 1.79 1.62 1.57 1.60 1.64 1.72 1.72 1.72 1.55 1.40 1.34 1.29 1.38 1.55 1.70 1.97 2.28 1.89
1.60 1.56 2.76 3.15 3.05 2.81 2.68 2.65 2.63 2.61 2.60 2.45 2.28 2.15 1.93 1.73 1.74 1.89 1.74 1.65 1.53 1.45 1.60 1.82 1.85 1.89 1.80 1.78 1.85 1.82 1.73 1.61 1.70 1.67 1.66 1.68 1.49 1.46 1.41 1.55 1.96 2.22 1.75
1.37 1.44 2.20 3.10 3.03 2.73 2.70 2.68 2.55 2.51 2.44 2.23 2.07 1.90 1.82 1.65 1.62 1.70 1.70 1.69 1.59 1.46 1.56 1.77 1.95 2.01 1.98 2.00 2.03 1.96 1.86 1.80 1.76 1.73 2.13 2.58 2.01 1.65 1.59 1.57 1.64 1.68 1.67
1.14 1.23 1.74 2.57 2.52 2.44 2.44 2.32 2.24 2.11 2.00 2.03 1.99 1.80 1.72 1.65 1.69 1.73 1.68 1.61 1.53 1.43 1.49 1.69 1.88 1.87 1.91 2.00 1.93 1.91 1.84 1.88 1.96 1.82 2.12 2.56 2.43 2.00 1.85 1.80 1.65 1.65 1.80
0.99 1.18 1.79 2.37 2.30 2.29 2.24 2.03 2.01 1.86 1.74 1.74 1.81 1.72 1.74 1.63 1.59 1.61 1.61 1.59 1.58 1.55 1.56 1.67 1.72 1.73 1.87 1.95 1.87 1.85 1.88 2.02 2.01 1.69 1.74 2.13 2.65 2.34 1.92 1.88 1.77 1.78 1.89
1.08 1.15 1.55 2.03 2.02 2.00 1.93 1.90 1.86 1.74 1.73 1.65 1.61 1.61 1.66 1.62 1.55 1.50 1.57 1.54 1.53 1.73 1.84 1.82 1.80 1.89 1.89 1.95 1.91 1.93 2.01 1.98 1.79 1.80 1.88 2.15 2.52 2.33 1.81 1.63 1.74 1.87 1.96
1.00 1.00 1.27 1.80 1.78 1.74 1.75 1.81 1.85 1.79 1.76 1.66 1.58 1.64 1.75 1.68 1.60 1.55 1.61 1.61 1.57 1.67 1.90 1.86 1.81 1.84 1.80 1.88 1.91 1.85 1.93 1.88 1.74 1.88 1.99 2.23 2.24 2.14 1.76 1.58 1.75 1.85 1.95
1.10 1.01 1.13 1.70 1.81 1.69 1.73 1.72 1.76 1.83 1.76 1.65 1.58 1.57 1.63 1.61 1.54 1.53 1.53 1.63 1.63 1.70 1.85 1.83 1.73 1.71 1.58 1.61 1.69 1.69 1.76 1.62 1.43 1.59 1.85 2.19 2.35 2.18 1.70 1.53 1.54 1.72 1.86
1.36 1.30 1.34 1.49 1.57 1.70 1.74 1.69 1.84 1.98 1.87 1.65 1.50 1.46 1.43 1.48 1.46 1.43 1.45 1.59 1.63 1.70 1.78 1.76 1.71 1.73 1.61 1.56 1.61 1.67 1.73 1.53 1.33 1.56 1.54 2.02 2.46 2.28 1.83 1.56 1.47 1.64 1.76
1.31 1.27 1.32 1.42 1.43 1.45 1.57 1.80 2.00 2.33 2.20 1.79 1.53 1.37 1.38 1.32 1.32 1.41 1.38 1.50 1.60 1.73 1.91 1.89 1.87 1.77 1.78 1.68 1.66 1.72 1.64 1.30 1.27 1.30 1.52 1.87 2.54 2.36 1.87 1.59 1.44 1.42 1.48
1.00 1.05 1.16 1.23 1.25 1.33 1.32 1.55 1.98 2.37 2.39 1.97 1.61 1.48 1.27 0.95 0.94 1.17 1.36 1.60 1.72 1.85 2.12 2.18 2.10 1.92 1.77 1.69 1.69 1.66 1.34 1.05 1.28 1.35 1.62 2.10 2.46 2.33 1.90 1.61 1.43 1.40 1.32
0.80 0.76 0.79 0.83 0.94 1.02 1.03 1.33 1.62 1.67 1.87 1.61 1.53 1.41 1.27 1.20 1.14 1.00 1.15 1.59 1.84 1.88 2.05 2.22 2.19 1.84 1.45 1.30 1.39 1.40 1.10 1.02 1.13 1.24 1.59 2.28 2.62 2.41 1.90 1.59 1.48 1.46 1.34
0.75 0.72 0.66 0.66 0.73 0.86 0.99 1.17 1.37 1.52 1.68 1.65 1.58 1.53 1.55 1.53 1.20 1.06 1.13 1.27 1.46 1.54 1.50 1.61 1.66 1.44 1.22 1.17 1.26 1.16 0.96 0.94 1.04 1.17 1.62 2.30 2.72 2.54 2.00 1.65 1.61 1.58 1.55
0.63 0.72 0.68 0.54 0.56 0.65 0.75 0.93 1.10 1.30 1.50 1.53 1.33 1.25 1.39 1.44 1.26 1.15 1.29 1.33 1.41 1.50 1.54 1.53 1.44 1.27 1.07 1.06 1.18 1.17 1.00 0.99 1.05 1.14 1.52 1.94 2.40 2.57 2.33 1.99 1.91 1.81 1.83
0.63 0.70 0.73 0.64 0.59 0.63 0.69 0.76 0.80 1.09 1.25 1.38 1.44 1.21 1.32 1.38 1.32 1.22 1.20 1.37 1.34 1.43 1.46 1.50 1.51 1.37 1.26 1.17 1.19 1.16 1.20 1.11 1.06 1.06 1.33 1.52 1.77 2.27 2.52 2.45 2.35 2.11 2.00
0.59 0.67 0.70 0.72 0.70 0.70 0.71 0.71 0.70 0.76 0.84 0.92 0.88 0.85 1.03 1.18 1.21 1.23 1.14 1.21 1.30 1.47 1.68 1.72 1.54 1.45 1.37 1.33 1.35 1.31 1.28 1.21 1.16 1.05 1.22 1.32 1.27 1.51 1.98 2.50 2.72 2.49 2.30
0.56 0.62 0.68 0.73 0.79 0.80 0.81 0.86 0.82 0.76 0.77 0.75 0.70 0.71 0.81 0.93 1.03 1.15 1.21 1.19 1.23 1.47 1.73 1.87 1.71 1.57 1.42 1.42 1.42 1.41 1.32 1.31 1.24 1.14 1.24 1.41 1.27 1.23 1.57 2.14 2.66 2.78 2.63
0.56 0.53 0.56 0.58 0.66 0.72 0.77 0.82 0.90 0.89 0.88 0.84 0.85 0.81 0.77 0.91 1.04 1.16 1.25 1.21 1.22 1.42 1.68 1.90 1.94 1.91 1.82 1.73 1.62 1.54 1.46 1.57 1.43 1.31 1.34 1.45 1.57 1.42 1.40 1.61 2.02 2.47 2.69
0.49 0.42 0.42 0.46 0.48 0.51 0.56 0.64 0.76 0.84 0.90 0.97 0.98 0.98 0.99 1.05 1.08 1.20 1.41 1.44 1.42 1.54 1.66 1.71 1.85 1.87 1.92 1.90 1.68 1.63 1.55 1.66 1.73 1.63 1.69 1.70 1.74 1.69 1.52 1.33 1.46 1.70 2.22
0.40 0.39 0.39 0.41 0.40 0.39 0.42 0.52 0.65 0.73 0.79 0.99 1.06 1.09 1.37 1.50 1.31 1.28 1.43 1.46 1.49 1.68 1.76 1.86 2.08 2.03 1.93 2.02 1.82 1.70 1.66 1.65 1.68 1.84 1.96 1.90 1.83 1.71 1.68 1.48 1.52 1.46 1.77
0.26 0.24 0.29 0.33 0.39 0.38 0.33 0.39 0.53 0.66 0.78 0.92 1.11 1.14 1.37 1.50 1.43 1.45 1.47 1.49 1.52 1.61 1.69 1.88 2.22 2.24 2.06 1.95 2.15 2.14 2.04 1.83 1.74 1.78 1.84 1.97 1.98 1.81 1.79 1.78 1.67 1.55 1.45
0.23 0.18 0.19 0.23 0.32 0.38 0.41 0.46 0.60 0.80 0.92 1.03 1.21 1.26 1.35 1.39 1.39 1.34 1.50 1.59 1.56 1.69 1.78 1.96 2.27 2.49 2.25 2.06 2.41 2.87 2.63 2.33 1.98 1.73 1.71 1.66 1.83 1.84 1.72 1.60 1.55 1.53 1.47
0.17 0.14 0.17 0.25 0.38 0.53 0.69 0.93 1.18 1.48 1.65 1.57 1.46 1.52 1.62 1.68 1.63 1.59 1.68 1.79 1.71 1.76 1.87 1.93 2.03 2.51 2.66 2.40 2.35 2.93 2.81 2.60 2.55 2.01 1.57 1.42 1.62 1.76 1.77 1.66 1.59 1.65 1.65
0.21 0.26 0.36 0.48 0.63 0.78 0.98 1.21 1.47 1.73 1.93 1.97 2.02 2.06 2.03 1.96 1.84 1.73 1.76 1.81 1.81 1.87 1.85 1.72 1.89 2.35 2.83 2.88 2.66 2.45 2.30 2.27 2.46 2.34 1.76 1.43 1.49 1.62 1.78 1.67 1.63 1.73 1.77
0.37 0.51 0.61 0.84 0.99 1.12 1.18 1.27 1.49 1.59 1.68 1.80 1.97 2.03 2.04 1.98 1.86 1.70 1.65 1.76 1.81 1.88 1.88 1.94 2.11 2.41 2.70 2.97 2.95 2.69 2.39 2.17 1.81 1.99 1.97 1.73 1.47 1.39 1.45 1.54 1.66 1.70 1.75
0.67 0.90 1.02 1.13 1.23 1.21 1.18 1.20 1.32 1.46 1.56 1.66 1.83 1.90 1.85 1.75 1.71 1.63 1.60 1.61 1.59 1.66 1.76 1.95 2.19 2.33 2.52 2.75 2.83 2.56 2.38 2.27 2.07 1.92 1.76 1.79 1.75 1.46 1.31 1.29 1.39 1.54 1.59

GEFSSE_prec_meanprecacc_252.txt.gz
Total_Precipitation_Accumulation
2.32 1.92 3.23 3.35 3.04 2.72 2.50 2.53 2.66 2.65 2.70 2.63 2.50 2.27 2.07 1.98 1.97 1.99 1.87 1.68 1.58 1.60 1.86 2.00 1.87 1.87 1.69 1.64 1.71 1.80 1.90 1.92 1.94 1.71 1.53 1.49 1.39 1.48 1.62 1.77 2.05 2.35 1.95
1.64 1.62 2.85 3.24 3.13 2.90 2.75 2.70 2.68 2.68 2.68 2.54 2.37 2.25 2.00 1.79 1.86 2.10 1.87 1.77 1.66 1.57 1.71 1.89 1.92 1.95 1.86 1.83 1.93 1.93 1.88 1.77 1.83 1.79 1.77 1.78 1.59 1.55 1.50 1.63 2.05 2.30 1.79
1.44 1.54 2.27 3.16 3.08 2.80 2.76 2.72 2.60 2.58 2.55 2.36 2.18 2.01 1.92 1.73 1.80 2.04 1.89 1.84 1.73 1.59 1.69 1.88 2.05 2.09 2.05 2.08 2.12 2.06 1.95 1.89 1.86 1.82 2.20 2.65 2.09 1.74 1.68 1.67 1.73 1.76 1.73
1.20 1.30 1.82 2.66 2.60 2.51 2.50 2.37 2.29 2.20 2.11 2.14 2.10 1.90 1.82 1.75 1.87 2.03 1.91 1.78 1.67 1.57 1.62 1.80 1.98 1.96 2.00 2.09 2.02 2.01 1.93 1.96 2.03 1.88 2.16 2.60 2.50 2.09 1.95 1.89 1.74 1.74 1.89
1.01 1.22 1.86 2.48 2.42 2.40 2.33 2.09 2.07 1.95 1.84 1.85 1.92 1.82 1.84 1.73 1.73 1.81 1.81 1.77 1.72 1.67 1.67 1.77 1.82 1.81 1.96 2.04 1.96 1.94 1.96 2.10 2.07 1.74 1.78 2.18 2.73 2.44 2.03 1.97 1.85 1.87 1.96
1.09 1.17 1.59 2.10 2.11 2.09 2.01 1.98 1.92 1.82 1.80 1.73 1.70 1.71 1.76 1.73 1.67 1.64 1.72 1.71 1.69 1.88 1.97 1.94 1.90 1.99 2.01 2.08 2.00 2.00 2.08 2.04 1.84 1.85 1.93 2.20 2.60 2.42 1.91 1.73 1.86 1.97 2.04
1.00 1.01 1.29 1.85 1.83 1.78 1.80 1.88 1.92 1.84 1.81 1.72 1.66 1.75 1.85 1.77 1.70 1.64 1.71 1.73 1.69 1.79 2.01 1.96 1.90 1.94 1.92 2.00 1.99 1.92 2.01 1.94 1.80 1.93 2.05 2.29 2.31 2.23 1.89 1.71 1.87 1.95 2.01
1.10 1.01 1.14 1.71 1.83 1.72 1.76 1.77 1.83 1.90 1.84 1.72 1.66 1.66 1.70 1.70 1.62 1.60 1.60 1.72 1.73 1.79 1.95 1.94 1.83 1.81 1.66 1.69 1.76 1.76 1.84 1.69 1.49 1.63 1.90 2.26 2.44 2.29 1.84 1.64 1.63 1.80 1.93
1.36 1.30 1.34 1.50 1.60 1.73 1.79 1.77 1.92 2.05 1.93 1.71 1.56 1.52 1.48 1.54 1.52 1.47 1.49 1.64 1.69 1.76 1.85 1.85 1.82 1.83 1.71 1.65 1.69 1.75 1.80 1.59 1.38 1.61 1.58 2.09 2.56 2.38 1.94 1.65 1.54 1.70 1.81
1.31 1.27 1.33 1.43 1.45 1.48 1.60 1.86 2.07 2.39 2.25 1.84 1.56 1.40 1.41 1.35 1.36 1.45 1.42 1.56 1.67 1.80 2.00 2.01 1.99 1.88 1.88 1.77 1.74 1.78 1.69 1.35 1.32 1.35 1.58 1.96 2.66 2.48 2.00 1.70 1.52 1.48 1.53
1.01 1.06 1.16 1.23 1.26 1.34 1.34 1.57 2.01 2.40 2.41 1.99 1.63 1.50 1.28 0.98 0.97 1.22 1.42 1.68 1.81 1.95 2.27 2.33 2.23 2.02 1.87 1.78 1.75 1.71 1.38 1.09 1.32 1.40 1.69 2.21 2.61 2.49 2.01 1.70 1.52 1.47 1.37
0.81 0.77 0.79 0.83 0.94 1.03 1.04 1.35 1.63 1.68 1.88 1.62 1.54 1.42 1.27 1.22 1.17 1.02 1.19 1.63 1.90 1.97 2.21 2.36 2.28 1.90 1.50 1.35 1.44 1.46 1.15 1.06 1.17 1.29 1.66 2.38 2.75 2.57 2.03 1.69 1.56 1.53 1.40
0.76 0.73 0.66 0.66 0.73 0.87 1.02 1.19 1.38 1.54 1.69 1.67 1.59 1.53 1.56 1.54 1.21 1.07 1.13 1.28 1.49 1.61 1.62 1.77 1.80 1.53 1.27 1.22 1.35 1.26 1.09 1.03 1.11 1.23 1.71 2.42 2.85 2.67 2.12 1.76 1.71 1.67 1.64
0.63 0.72 0.68 0.54 0.56 0.66 0.76 0.94 1.10 1.31 1.50 1.54 1.34 1.26 1.40 1.45 1.27 1.16 1.30 1.35 1.44 1.57 1.63 1.65 1.60 1.40 1.14 1.11 1.24 1.24 1.10 1.14 1.13 1.20 1.60 2.05 2.52 2.68 2.43 2.10 2.02 1.93 1.97
0.63 0.71 0.74 0.64 0.59 0.64 0.70 0.78 0.80 1.09 1.26 1.39 1.44 1.21 1.32 1.38 1.33 1.23 1.21 1.37 1.37 1.49 1.53 1.60 1.63 1.48 1.33 1.22 1.23 1.21 1.25 1.22 1.14 1.10 1.39 1.60 1.86 2.38 2.63 2.58 2.47 2.29 2.20
0.59 0.68 0.70 0.72 0.70 0.70 0.72 0.73 0.72 0.78 0.85 0.93 0.88 0.85 1.04 1.18 1.21 1.24 1.15 1.22 1.33 1.52 1.74 1.79 1.62 1.52 1.42 1.37 1.38 1.34 1.33 1.25 1.20 1.10 1.28 1.39 1.34 1.59 2.08 2.62 2.85 2.67 2.49
0.57 0.63 0.68 0.73 0.79 0.81 0.82 0.87 0.83 0.77 0.78 0.75 0.70 0.71 0.82 0.94 1.03 1.16 1.22 1.20 1.26 1.51 1.77 1.91 1.74 1.60 1.44 1.44 1.45 1.45 1.37 1.35 1.27 1.19 1.31 1.47 1.34 1.31 1.66 2.25 2.81 2.94 2.80
0.57 0.54 0.56 0.58 0.68 0.73 0.78 0.82 0.91 0.90 0.89 0.85 0.85 0.81 0.77 0.91 1.05 1.17 1.27 1.23 1.26 1.47 1.71 1.92 1.95 1.92 1.83 1.76 1.66 1.58 1.52 1.63 1.48 1.36 1.41 1.53 1.66 1.50 1.48 1.76 2.20 2.63 2.85
0.50 0.44 0.43 0.47 0.50 0.53 0.57 0.65 0.77 0.85 0.91 0.98 0.98 0.98 0.99 1.05 1.09 1.21 1.43 1.47 1.46 1.58 1.68 1.72 1.86 1.88 1.94 1.94 1.73 1.68 1.60 1.72 1.80 1.69 1.74 1.78 1.85 1.81 1.65 1.52 1.64 1.83 2.35
0.41 0.42 0.42 0.43 0.43 0.41 0.43 0.53 0.66 0.74 0.80 1.00 1.06 1.09 1.37 1.50 1.31 1.28 1.46 1.50 1.53 1.72 1.79 1.88 2.09 2.04 1.95 2.04 1.86 1.75 1.71 1.71 1.74 1.92 2.05 2.01 1.95 1.82 1.79 1.62 1.65 1.56 1.87
0.27 0.25 0.31 0.34 0.41 0.40 0.35 0.40 0.54 0.66 0.79 0.94 1.12 1.15 1.37 1.51 1.43 1.46 1.49 1.53 1.56 1.65 1.72 1.89 2.23 2.25 2.07 1.97 2.18 2.17 2.07 1.87 1.78 1.84 1.93 2.09 2.10 1.90 1.89 1.88 1.74 1.61 1.51
0.24 0.18 0.20 0.23 0.33 0.40 0.42 0.48 0.62 0.80 0.92 1.04 1.22 1.27 1.36 1.39 1.40 1.35 1.52 1.62 1.58 1.72 1.79 1.97 2.28 2.50 2.26 2.07 2.43 2.89 2.66 2.38 2.03 1.78 1.76 1.74 1.92 1.90 1.79 1.69 1.61 1.57 1.51
0.17 0.14 0.18 0.26 0.40 0.55 0.70 0.94 1.19 1.49 1.65 1.57 1.47 1.53 1.62 1.69 1.64 1.60 1.68 1.80 1.72 1.77 1.89 1.94 2.05 2.53 2.67 2.42 2.37 2.95 2.84 2.63 2.59 2.04 1.61 1.46 1.67 1.82 1.83 1.71 1.65 1.69 1.68
0.21 0.27 0.36 0.48 0.64 0.79 0.98 1.21 1.47 1.73 1.93 1.97 2.03 2.06 2.03 1.96 1.84 1.73 1.76 1.82 1.82 1.88 1.86 1.73 1.90 2.36 2.85 2.90 2.67 2.46 2.31 2.28 2.48 2.36 1.78 1.45 1.51 1.65 1.81 1.70 1.67 1.75 1.79
0.38 0.51 0.62 0.85 1.01 1.13 1.18 1.27 1.49 1.59 1.68 1.80 1.97 2.04 2.04 1.98 1.86 1.71 1.66 1.77 1.82 1.89 1.89 1.95 2.11 2.42 2.71 2.99 2.97 2.70 2.40 2.17 1.81 2.00 1.99 1.76 1.50 1.40 1.46 1.56 1.68 1.71 1.75
0.67 0.90 1.03 1.14 1.25 1.23 1.19 1.20 1.32 1.47 1.56 1.66 1.83 1.90 1.85 1.75 1.71 1.64 1.61 1.63 1.61 1.68 1.78 1.96 2.19 2.33 2.53 2.76 2.84 2.57 2.39 2.28 2.07 1.93 1.77 1.82 1.78 1.49 1.33 1.30 1.40 1.54 1.60

GEFSSE_prec_meanprecacc_258.txt.gz
Total_Precipitation_Accumulation
2.37 1.98 3.28 3.42 3.11 2.77 2.56 2.58 2.72 2.70 2.76 2.70 2.58 2.36 2.16 2.08 2.10 2.12 1.97 1.74 1.66 1.71 1.94 2.08 1.96 1.97 1.79 1.73 1.81 1.92 2.00 2.00 2.08 1.85 1.64 1.58 1.49 1.58 1.73 1.87 2.17 2.48 2.03
1.68 1.68 2.91 3.29 3.18 2.94 2.80 2.74 2.73 2.74 2.75 2.63 2.45 2.34 2.08 1.88 1.95 2.19 1.97 1.87 1.74 1.65 1.78 1.97 2.01 2.06 1.97 1.94 2.03 2.07 2.09 2.00 2.04 1.95 1.92 1.92 1.71 1.65 1.56 1.69 2.15 2.43 1.86
1.47 1.59 2.34 3.21 3.14 2.86 2.82 2.77 2.64 2.64 2.64 2.44 2.25 2.09 2.00 1.81 1.88 2.12 1.97 1.95 1.83 1.67 1.77 1.96 2.13 2.19 2.19 2.19 2.23 2.16 2.12 2.13 2.06 1.96 2.34 2.81 2.21 1.83 1.76 1.74 1.81 1.87 1.81
1.23 1.36 1.89 2.71 2.64 2.56 2.55 2.41 2.33 2.26 2.19 2.22 2.17 1.95 1.87 1.82 1.99 2.18 2.03 1.91 1.78 1.65 1.70 1.88 2.06 2.04 2.10 2.21 2.14 2.12 2.04 2.08 2.16 2.01 2.30 2.72 2.60 2.18 2.06 1.99 1.83 1.83 1.97
1.04 1.28 1.94 2.55 2.47 2.45 2.38 2.13 2.13 2.01 1.92 1.95 2.01 1.89 1.91 1.82 1.85 2.01 2.04 1.92 1.84 1.76 1.74 1.85 1.92 1.91 2.05 2.13 2.06 2.06 2.07 2.20 2.20 1.88 1.90 2.30 2.88 2.59 2.15 2.06 1.94 1.96 2.04
1.11 1.20 1.65 2.17 2.16 2.13 2.07 2.07 2.01 1.89 1.90 1.85 1.81 1.81 1.86 1.83 1.77 1.81 1.96 1.89 1.85 2.00 2.07 2.03 2.01 2.09 2.11 2.16 2.09 2.11 2.19 2.14 1.95 1.96 2.07 2.35 2.74 2.55 2.02 1.82 1.94 2.05 2.11
1.00 1.02 1.32 1.88 1.86 1.81 1.84 1.94 2.00 1.93 1.91 1.81 1.76 1.85 1.93 1.84 1.77 1.77 1.91 1.94 1.90 1.98 2.16 2.09 2.01 2.04 2.03 2.08 2.06 2.01 2.10 2.04 1.90 2.04 2.18 2.44 2.43 2.33 1.99 1.80 1.95 2.03 2.10
1.10 1.02 1.15 1.73 1.85 1.74 1.78 1.81 1.89 1.96 1.91 1.78 1.74 1.73 1.78 1.78 1.70 1.71 1.77 1.90 1.87 1.91 2.06 2.05 1.94 1.92 1.77 1.77 1.81 1.82 1.92 1.78 1.56 1.72 1.99 2.38 2.54 2.39 1.93 1.71 1.70 1.87 2.00
1.37 1.31 1.35 1.52 1.63 1.75 1.81 1.80 1.97 2.10 1.98 1.75 1.61 1.58 1.54 1.60 1.58 1.55 1.60 1.76 1.78 1.84 1.93 1.94 1.93 1.94 1.80 1.73 1.75 1.79 1.85 1.65 1.44 1.69 1.66 2.19 2.64 2.46 2.01 1.72 1.61 1.78 1.89
1.32 1.28 1.33 1.44 1.48 1.52 1.63 1.88 2.10 2.42 2.30 1.87 1.58 1.42 1.44 1.40 1.41 1.51 1.49 1.63 1.74 1.87 2.08 2.09 2.09 1.98 1.97 1.84 1.79 1.82 1.72 1.39 1.38 1.41 1.66 2.05 2.74 2.55 2.08 1.76 1.60 1.57 1.62
1.01 1.06 1.17 1.24 1.27 1.37 1.37 1.59 2.03 2.44 2.45 2.02 1.66 1.54 1.34 1.04 1.04 1.28 1.47 1.73 1.86 2.02 2.36 2.42 2.29 2.10 1.95 1.83 1.79 1.74 1.41 1.14 1.37 1.46 1.77 2.30 2.69 2.58 2.11 1.80 1.61 1.56 1.45
0.82 0.78 0.80 0.83 0.94 1.04 1.06 1.36 1.65 1.69 1.89 1.64 1.56 1.44 1.32 1.27 1.22 1.06 1.22 1.67 1.93 1.99 2.25 2.40 2.32 1.95 1.56 1.40 1.49 1.50 1.19 1.11 1.24 1.37 1.76 2.49 2.84 2.65 2.13 1.79 1.67 1.63 1.50
0.76 0.74 0.67 0.66 0.74 0.89 1.05 1.21 1.40 1.56 1.72 1.69 1.62 1.56 1.59 1.56 1.23 1.09 1.17 1.33 1.53 1.64 1.66 1.80 1.83 1.55 1.30 1.25 1.39 1.29 1.12 1.07 1.18 1.30 1.79 2.51 2.94 2.77 2.22 1.86 1.80 1.77 1.77
0.64 0.73 0.69 0.55 0.57 0.66 0.77 0.94 1.11 1.32 1.52 1.57 1.37 1.28 1.42 1.48 1.30 1.20 1.33 1.39 1.49 1.62 1.67 1.67 1.62 1.42 1.15 1.13 1.27 1.25 1.12 1.17 1.19 1.27 1.66 2.11 2.58 2.75 2.51 2.18 2.09 2.01 2.12
0.64 0.72 0.75 0.65 0.60 0.64 0.71 0.78 0.80 1.09 1.27 1.42 1.46 1.22 1.33 1.40 1.35 1.25 1.23 1.39 1.40 1.51 1.55 1.63 1.67 1.50 1.35 1.24 1.25 1.22 1.28 1.28 1.20 1.15 1.42 1.63 1.90 2.44 2.70 2.64 2.54 2.38 2.36
0.59 0.69 0.71 0.72 0.70 0.71 0.73 0.73 0.72 0.78 0.86 0.95 0.89 0.85 1.04 1.19 1.22 1.25 1.16 1.23 1.34 1.54 1.77 1.85 1.69 1.58 1.47 1.41 1.42 1.37 1.36 1.32 1.29 1.20 1.33 1.43 1.38 1.64 2.13 2.68 2.93 2.81 2.67
0.57 0.63 0.69 0.75 0.80 0.81 0.82 0.87 0.83 0.77 0.78 0.76 0.71 0.71 0.82 0.94 1.03 1.16 1.23 1.21 1.27 1.53 1.83 2.01 1.89 1.75 1.56 1.52 1.51 1.48 1.40 1.40 1.33 1.30 1.40 1.54 1.39 1.36 1.70 2.31 2.90 3.08 2.94
0.57 0.54 0.57 0.59 0.68 0.73 0.79 0.82 0.91 0.90 0.89 0.85 0.85 0.81 0.78 0.92 1.05 1.17 1.27 1.23 1.27 1.51 1.79 2.02 2.10 2.08 1.96 1.85 1.72 1.61 1.54 1.65 1.51 1.41 1.49 1.62 1.73 1.56 1.57 1.87 2.30 2.73 2.94
0.51 0.45 0.44 0.47 0.50 0.54 0.57 0.65 0.78 0.85 0.92 0.99 0.99 0.98 0.99 1.06 1.09 1.21 1.44 1.49 1.49 1.66 1.75 1.79 1.95 2.00 2.06 2.02 1.79 1.71 1.63 1.74 1.82 1.73 1.80 1.86 1.93 1.87 1.74 1.64 1.76 1.93 2.44
0.43 0.43 0.42 0.44 0.43 0.42 0.44 0.54 0.67 0.75 0.81 1.01 1.07 1.10 1.37 1.50 1.32 1.30 1.47 1.53 1.59 1.81 1.85 1.92 2.15 2.13 2.05 2.13 1.91 1.78 1.74 1.73 1.77 1.97 2.11 2.10 2.05 1.90 1.86 1.70 1.75 1.68 1.99
0.27 0.27 0.33 0.36 0.43 0.43 0.37 0.41 0.55 0.67 0.80 0.94 1.13 1.15 1.37 1.51 1.44 1.48 1.54 1.59 1.63 1.71 1.77 1.92 2.27 2.30 2.13 2.01 2.21 2.19 2.09 1.89 1.81 1.90 2.01 2.17 2.19 2.00 1.95 1.93 1.83 1.74 1.63
0.24 0.19 0.21 0.25 0.35 0.43 0.45 0.51 0.63 0.82 0.93 1.05 1.23 1.27 1.36 1.40 1.40 1.36 1.56 1.69 1.66 1.77 1.84 2.01 2.32 2.53 2.28 2.10 2.46 2.93 2.69 2.40 2.07 1.84 1.84 1.83 2.01 2.01 1.88 1.77 1.69 1.67 1.61
0.17 0.14 0.18 0.26 0.40 0.56 0.71 0.94 1.20 1.50 1.66 1.58 1.48 1.54 1.62 1.69 1.64 1.60 1.70 1.86 1.79 1.83 1.93 1.97 2.08 2.57 2.72 2.46 2.41 2.99 2.88 2.66 2.62 2.08 1.66 1.51 1.73 1.89 1.90 1.79 1.73 1.79 1.77
0.21 0.27 0.36 0.48 0.64 0.79 0.99 1.22 1.48 1.74 1.94 1.98 2.03 2.07 2.04 1.97 1.85 1.73 1.78 1.87 1.88 1.94 1.91 1.75 1.91 2.40 2.90 2.94 2.71 2.50 2.34 2.30 2.49 2.39 1.82 1.49 1.54 1.68 1.85 1.74 1.73 1.82 1.86
0.38 0.51 0.62 0.85 1.01 1.14 1.19 1.28 1.50 1.60 1.68 1.80 1.98 2.05 2.06 1.99 1.87 1.71 1.68 1.81 1.88 1.96 1.94 1.97 2.13 2.44 2.73 3.01 3.00 2.74 2.43 2.20 1.83 2.02 2.03 1.80 1.53 1.42 1.49 1.59 1.71 1.76 1.79
0.67 0.90 1.03 1.15 1.26 1.24 1.20 1.21 1.33 1.47 1.57 1.67 1.84 1.91 1.87 1.77 1.73 1.65 1.62 1.66 1.64 1.74 1.83 1.99 2.22 2.35 2.54 2.79 2.88 2.60 2.42 2.31 2.10 1.95 1.80 1.85 1.81 1.50 1.34 1.32 1.42 1.58 1.64

GEFSSE_prec_meanprecacc_264.txt.gz
Total_Precipitation_Accumulation
2.41 2.02 3.33 3.47 3.14 2.80 2.58 2.60 2.73 2.73 2.80 2.78 2.65 2.41 2.20 2.10 2.13 2.17 2.02 1.78 1.69 1.75 1.98 2.12 2.00 2.02 1.84 1.79 1.89 2.04 2.10 2.08 2.15 1.92 1.74 1.68 1.59 1.69 1.85 1.97 2.25 2.53 2.10
1.70 1.70 2.95 3.33 3.21 2.96 2.82 2.77 2.77 2.78 2.80 2.68 2.51 2.39 2.12 1.91 2.00 2.24 2.03 1.94 1.78 1.67 1.81 2.01 2.05 2.10 2.02 2.00 2.14 2.20 2.18 2.07 2.11 2.01 2.02 2.02 1.82 1.77 1.66 1.77 2.23 2.50 1.93
1.49 1.62 2.37 3.24 3.17 2.88 2.85 2.80 2.69 2.69 2.68 2.49 2.31 2.12 2.03 1.84 1.91 2.15 2.02 2.01 1.88 1.70 1.80 2.02 2.18 2.23 2.24 2.26 2.38 2.33 2.27 2.27 2.17 2.05 2.42 2.87 2.30 1.96 1.88 1.83 1.89 1.95 1.88
1.23 1.39 1.93 2.73 2.66 2.58 2.57 2.43 2.36 2.31 2.22 2.26 2.22 1.99 1.89 1.84 2.00 2.21 2.09 1.97 1.83 1.69 1.75 1.95 2.12 2.08 2.15 2.27 2.26 2.27 2.22 2.23 2.28 2.10 2.34 2.77 2.66 2.30 2.18 2.09 1.91 1.88 2.02
1.05 1.31 2.01 2.60 2.49 2.47 2.41 2.16 2.17 2.05 1.95 1.99 2.07 1.95 1.95 1.85 1.88 2.06 2.09 2.01 1.90 1.81 1.79 1.92 1.98 1.95 2.08 2.19 2.14 2.17 2.18 2.31 2.32 1.94 1.92 2.32 2.92 2.67 2.25 2.15 2.05 2.03 2.10
1.12 1.23 1.71 2.25 2.22 2.19 2.14 2.15 2.09 1.95 1.94 1.92 1.88 1.90 1.92 1.88 1.85 1.91 2.04 1.98 1.92 2.06 2.13 2.09 2.07 2.15 2.16 2.21 2.14 2.19 2.29 2.25 2.03 1.99 2.09 2.38 2.79 2.62 2.11 1.91 2.05 2.16 2.19
1.01 1.03 1.35 1.92 1.90 1.86 1.91 2.02 2.08 2.00 1.98 1.88 1.84 1.96 2.01 1.89 1.86 1.91 2.06 2.06 1.98 2.05 2.23 2.16 2.08 2.09 2.07 2.13 2.12 2.07 2.17 2.12 1.94 2.06 2.20 2.48 2.49 2.44 2.10 1.91 2.06 2.12 2.19
1.11 1.02 1.16 1.76 1.87 1.75 1.81 1.85 1.95 2.02 1.97 1.86 1.83 1.82 1.87 1.86 1.82 1.91 1.96 2.05 1.96 1.98 2.12 2.11 1.99 1.95 1.79 1.81 1.88 1.87 1.98 1.83 1.59 1.76 2.03 2.41 2.62 2.51 2.03 1.81 1.79 1.96 2.08
1.37 1.31 1.35 1.54 1.65 1.76 1.84 1.82 1.98 2.12 2.02 1.81 1.67 1.64 1.60 1.65 1.67 1.72 1.74 1.85 1.85 1.89 1.98 1.99 1.99 1.99 1.85 1.79 1.81 1.85 1.90 1.70 1.47 1.72 1.70 2.24 2.73 2.55 2.09 1.80 1.69 1.86 1.96
1.32 1.28 1.34 1.45 1.49 1.52 1.64 1.90 2.12 2.45 2.33 1.90 1.61 1.46 1.47 1.43 1.48 1.64 1.59 1.70 1.81 1.94 2.15 2.16 2.14 2.03 2.02 1.91 1.84 1.86 1.76 1.42 1.39 1.42 1.68 2.10 2.83 2.61 2.13 1.81 1.65 1.63 1.69
1.02 1.06 1.17 1.25 1.29 1.37 1.37 1.60 2.05 2.46 2.48 2.04 1.68 1.57 1.36 1.05 1.07 1.35 1.55 1.82 1.95 2.10 2.43 2.48 2.34 2.15 2.00 1.89 1.84 1.77 1.43 1.15 1.38 1.47 1.80 2.37 2.79 2.66 2.18 1.85 1.65 1.61 1.52
0.83 0.79 0.81 0.84 0.95 1.05 1.06 1.37 1.65 1.70 1.90 1.65 1.58 1.46 1.33 1.28 1.23 1.09 1.28 1.75 2.00 2.05 2.30 2.44 2.36 1.98 1.58 1.41 1.51 1.52 1.20 1.11 1.25 1.39 1.82 2.60 2.95 2.73 2.20 1.85 1.73 1.69 1.55
0.77 0.74 0.67 0.68 0.76 0.89 1.05 1.22 1.41 1.57 1.72 1.70 1.62 1.57 1.60 1.57 1.24 1.12 1.20 1.36 1.56 1.66 1.67 1.82 1.84 1.57 1.32 1.27 1.40 1.31 1.13 1.09 1.19 1.31 1.84 2.61 3.05 2.85 2.28 1.92 1.86 1.85 1.83
0.64 0.73 0.69 0.55 0.57 0.67 0.77 0.94 1.11 1.33 1.53 1.57 1.37 1.28 1.43 1.48 1.31 1.21 1.35 1.41 1.52 1.65 1.70 1.69 1.64 1.45 1.17 1.15 1.28 1.27 1.13 1.18 1.19 1.28 1.69 2.19 2.66 2.81 2.57 2.24 2.14 2.07 2.20
0.64 0.72 0.75 0.66 0.60 0.65 0.71 0.78 0.81 1.10 1.28 1.43 1.46 1.22 1.33 1.40 1.36 1.26 1.23 1.40 1.41 1.55 1.58 1.66 1.70 1.54 1.37 1.25 1.25 1.23 1.29 1.29 1.22 1.16 1.44 1.68 1.96 2.49 2.76 2.70 2.59 2.45 2.45
0.60 0.69 0.71 0.73 0.71 0.71 0.73 0.73 0.72 0.78 0.86 0.95 0.89 0.85 1.04 1.20 1.22 1.26 1.17 1.24 1.35 1.55 1.79 1.88 1.72 1.60 1.49 1.43 1.43 1.38 1.37 1.34 1.31 1.21 1.33 1.45 1.41 1.67 2.17 2.74 2.99 2.89 2.79
0.58 0.64 0.69 0.75 0.81 0.82 0.82 0.87 0.83 0.77 0.78 0.76 0.71 0.71 0.82 0.95 1.04 1.17 1.23 1.22 1.28 1.55 1.83 2.03 1.91 1.76 1.57 1.54 1.53 1.51 1.43 1.42 1.35 1.31 1.41 1.55 1.41 1.39 1.73 2.35 2.96 3.17 3.03
0.57 0.55 0.57 0.60 0.69 0.74 0.79 0.83 0.91 0.90 0.89 0.85 0.85 0.81 0.78 0.92 1.05 1.18 1.28 1.25 1.28 1.53 1.80 2.03 2.10 2.08 1.96 1.86 1.74 1.63 1.56 1.67 1.53 1.44 1.52 1.66 1.75 1.59 1.61 1.91 2.37 2.83 3.04
0.52 0.46 0.44 0.48 0.50 0.54 0.58 0.66 0.78 0.86 0.92 0.99 0.99 0.98 0.99 1.06 1.10 1.22 1.45 1.50 1.51 1.69 1.77 1.80 1.96 2.01 2.07 2.04 1.80 1.73 1.65 1.76 1.84 1.75 1.83 1.94 1.99 1.91 1.78 1.68 1.83 2.02 2.54
0.44 0.44 0.43 0.45 0.45 0.44 0.45 0.55 0.68 0.76 0.82 1.01 1.07 1.10 1.37 1.51 1.33 1.30 1.48 1.54 1.61 1.85 1.88 1.94 2.17 2.16 2.08 2.15 1.93 1.80 1.75 1.75 1.78 1.99 2.14 2.16 2.14 1.95 1.90 1.75 1.83 1.76 2.08
0.28 0.28 0.34 0.38 0.45 0.44 0.39 0.42 0.57 0.69 0.81 0.95 1.13 1.15 1.38 1.52 1.45 1.49 1.54 1.60 1.65 1.75 1.81 1.94 2.30 2.34 2.18 2.05 2.23 2.22 2.12 1.91 1.83 1.91 2.04 2.25 2.31 2.09 2.01 2.00 1.91 1.82 1.72
0.25 0.20 0.22 0.26 0.37 0.45 0.48 0.52 0.65 0.83 0.94 1.06 1.24 1.27 1.36 1.40 1.40 1.36 1.57 1.71 1.68 1.82 1.88 2.04 2.34 2.58 2.34 2.15 2.49 2.96 2.72 2.43 2.09 1.85 1.87 1.92 2.13 2.10 1.95 1.83 1.76 1.75 1.71
0.18 0.15 0.19 0.27 0.42 0.57 0.73 0.96 1.22 1.51 1.67 1.59 1.49 1.55 1.63 1.70 1.64 1.61 1.71 1.87 1.82 1.88 1.98 2.02 2.12 2.61 2.78 2.53 2.45 3.01 2.89 2.68 2.64 2.09 1.68 1.57 1.82 1.98 1.98 1.85 1.80 1.87 1.86
0.22 0.28 0.37 0.49 0.65 0.81 1.00 1.23 1.49 1.75 1.96 2.00 2.06 2.10 2.06 1.98 1.86 1.74 1.78 1.89 1.92 1.99 1.97 1.80 1.96 2.44 2.95 3.01 2.76 2.52 2.35 2.30 2.50 2.40 1.84 1.52 1.57 1.72 1.90 1.80 1.79 1.89 1.94
0.38 0.52 0.64 0.87 1.02 1.15 1.20 1.29 1.51 1.62 1.71 1.83 2.01 2.09 2.09 2.02 1.90 1.74 1.70 1.84 1.94 2.01 2.00 2.03 2.19 2.49 2.79 3.06 3.03 2.76 2.45 2.22 1.84 2.03 2.04 1.82 1.56 1.45 1.51 1.63 1.76 1.83 1.87
0.69 0.92 1.06 1.18 1.29 1.28 1.23 1.24 1.36 1.50 1.61 1.72 1.89 1.97 1.91 1.80 1.77 1.69 1.67 1.69 1.70 1.80 1.89 2.05 2.28 2.42 2.61 2.83 2.90 2.61 2.44 2.33 2.13 1.96 1.80 1.87 1.83 1.52 1.37 1.35 1.45 1.62 1.68

GEFSSE_prec_meanprecacc_270.txt.gz
Total_Precipitation_Accumulation
2.43 2.07 3.42 3.54 3.19 2.85 2.64 2.65 2.77 2.76 2.85 2.83 2.70 2.45 2.28 2.19 2.23 2.27 2.09 1.84 1.75 1.78 2.04 2.19 2.10 2.13 1.95 1.92 1.99 2.13 2.21 2.19 2.28 2.04 1.82 1.73 1.65 1.76 1.93 2.05 2.31 2.59 2.17
1.72 1.74 3.01 3.39 3.25 2.99 2.86 2.82 2.82 2.84 2.85 2.75 2.57 2.46 2.18 1.98 2.07 2.33 2.11 2.00 1.83 1.72 1.87 2.08 2.14 2.21 2.12 2.11 2.25 2.30 2.28 2.19 2.23 2.12 2.11 2.10 1.90 1.83 1.72 1.85 2.31 2.57 2.02
1.51 1.65 2.41 3.28 3.20 2.91 2.89 2.85 2.74 2.75 2.76 2.56 2.38 2.18 2.09 1.90 1.96 2.22 2.10 2.10 1.95 1.77 1.90 2.11 2.27 2.33 2.32 2.34 2.48 2.43 2.35 2.39 2.32 2.17 2.50 2.92 2.36 2.04 1.96 1.92 2.00 2.02 1.95
1.25 1.43 1.97 2.77 2.70 2.62 2.61 2.47 2.40 2.37 2.29 2.31 2.28 2.05 1.95 1.91 2.06 2.28 2.18 2.06 1.90 1.78 1.85 2.04 2.23 2.18 2.22 2.34 2.35 2.52 2.53 2.58 2.53 2.24 2.40 2.81 2.71 2.39 2.27 2.18 2.01 1.97 2.09
1.06 1.34 2.04 2.64 2.52 2.50 2.45 2.20 2.21 2.11 2.02 2.06 2.14 2.02 2.03 1.92 1.95 2.14 2.17 2.09 2.00 1.93 1.88 2.02 2.10 2.04 2.16 2.27 2.24 2.38 2.55 2.66 2.52 2.04 1.96 2.35 2.98 2.77 2.34 2.26 2.19 2.17 2.19
1.12 1.25 1.75 2.33 2.28 2.23 2.19 2.23 2.17 2.02 2.01 1.98 1.96 1.99 2.00 1.95 1.92 1.98 2.14 2.07 2.01 2.17 2.23 2.20 2.22 2.24 2.24 2.28 2.22 2.29 2.41 2.35 2.10 2.03 2.10 2.39 2.84 2.73 2.21 2.02 2.17 2.29 2.30
1.01 1.04 1.37 2.00 2.01 1.96 2.00 2.11 2.17 2.07 2.05 1.94 1.91 2.06 2.09 2.00 1.96 2.00 2.18 2.18 2.10 2.14 2.31 2.25 2.20 2.19 2.15 2.21 2.19 2.15 2.24 2.17 1.96 2.08 2.21 2.48 2.53 2.55 2.23 2.04 2.19 2.26 2.31
1.11 1.02 1.17 1.80 1.94 1.84 1.91 1.95 2.02 2.10 2.05 1.93 1.91 1.92 1.98 2.05 1.97 2.01 2.06 2.16 2.09 2.09 2.21 2.19 2.07 2.04 1.88 1.90 1.97 1.95 2.05 1.87 1.60 1.77 2.04 2.44 2.69 2.60 2.14 1.94 1.92 2.09 2.21
1.38 1.31 1.36 1.55 1.68 1.80 1.90 1.91 2.05 2.17 2.08 1.88 1.76 1.73 1.76 1.88 1.86 1.83 1.83 1.94 1.93 1.98 2.05 2.05 2.04 2.06 1.90 1.85 1.90 1.94 1.97 1.73 1.49 1.74 1.72 2.29 2.79 2.63 2.20 1.92 1.81 1.98 2.10
1.32 1.29 1.35 1.46 1.50 1.53 1.66 1.95 2.20 2.54 2.40 1.96 1.66 1.52 1.61 1.62 1.67 1.77 1.69 1.78 1.87 2.00 2.21 2.21 2.20 2.10 2.07 1.96 1.91 1.93 1.81 1.44 1.40 1.44 1.71 2.15 2.91 2.71 2.24 1.92 1.74 1.72 1.80
1.02 1.07 1.17 1.26 1.30 1.37 1.38 1.61 2.09 2.52 2.54 2.09 1.72 1.62 1.45 1.17 1.22 1.48 1.65 1.89 2.01 2.15 2.49 2.55 2.41 2.21 2.05 1.93 1.88 1.80 1.45 1.17 1.40 1.50 1.84 2.43 2.89 2.78 2.30 1.95 1.72 1.68 1.58
0.84 0.80 0.81 0.84 0.96 1.06 1.08 1.38 1.67 1.72 1.92 1.66 1.59 1.47 1.35 1.32 1.31 1.19 1.38 1.83 2.06 2.11 2.36 2.51 2.42 2.03 1.60 1.42 1.53 1.54 1.20 1.12 1.26 1.41 1.87 2.68 3.08 2.88 2.33 1.94 1.79 1.75 1.60
0.77 0.75 0.68 0.68 0.76 0.91 1.06 1.22 1.41 1.57 1.72 1.70 1.63 1.57 1.60 1.59 1.29 1.17 1.26 1.42 1.61 1.71 1.72 1.86 1.87 1.59 1.33 1.28 1.42 1.33 1.14 1.10 1.19 1.32 1.89 2.69 3.17 2.98 2.38 1.98 1.91 1.88 1.87
0.64 0.73 0.70 0.56 0.59 0.69 0.78 0.95 1.12 1.33 1.53 1.57 1.37 1.28 1.43 1.50 1.34 1.25 1.40 1.46 1.55 1.68 1.72 1.72 1.66 1.47 1.19 1.16 1.30 1.29 1.15 1.19 1.20 1.30 1.72 2.25 2.75 2.90 2.65 2.29 2.19 2.11 2.24
0.64 0.72 0.75 0.66 0.61 0.66 0.72 0.78 0.81 1.10 1.28 1.43 1.46 1.22 1.34 1.41 1.37 1.29 1.27 1.43 1.43 1.57 1.60 1.67 1.71 1.55 1.38 1.25 1.26 1.23 1.31 1.30 1.22 1.18 1.45 1.72 2.03 2.58 2.84 2.77 2.66 2.51 2.49
0.60 0.69 0.71 0.73 0.71 0.71 0.73 0.73 0.72 0.78 0.86 0.96 0.89 0.85 1.05 1.20 1.24 1.28 1.19 1.26 1.36 1.56 1.80 1.89 1.72 1.61 1.50 1.43 1.44 1.39 1.38 1.34 1.31 1.21 1.34 1.46 1.45 1.74 2.25 2.80 3.06 2.95 2.83
0.58 0.64 0.70 0.75 0.82 0.82 0.82 0.87 0.83 0.77 0.79 0.77 0.71 0.71 0.83 0.95 1.05 1.18 1.24 1.23 1.29 1.55 1.84 2.04 1.92 1.76 1.57 1.54 1.53 1.51 1.43 1.42 1.35 1.31 1.42 1.56 1.43 1.41 1.77 2.39 3.02 3.22 3.06
0.57 0.55 0.57 0.61 0.70 0.74 0.79 0.83 0.92 0.91 0.90 0.87 0.86 0.82 0.78 0.92 1.06 1.18 1.30 1.26 1.29 1.54 1.81 2.04 2.11 2.08 1.97 1.86 1.75 1.64 1.56 1.67 1.53 1.44 1.53 1.67 1.76 1.61 1.63 1.95 2.42 2.88 3.09
0.52 0.46 0.44 0.49 0.51 0.55 0.59 0.66 0.79 0.87 0.93 1.01 1.00 0.99 0.99 1.06 1.10 1.23 1.46 1.51 1.52 1.70 1.78 1.81 1.97 2.02 2.08 2.04 1.81 1.74 1.66 1.76 1.84 1.75 1.84 1.96 2.01 1.93 1.80 1.71 1.86 2.06 2.61
0.44 0.44 0.44 0.46 0.45 0.44 0.45 0.55 0.69 0.77 0.83 1.02 1.08 1.11 1.38 1.52 1.34 1.31 1.49 1.55 1.62 1.86 1.90 1.95 2.18 2.17 2.09 2.16 1.93 1.80 1.76 1.75 1.78 1.99 2.15 2.18 2.16 1.96 1.93 1.77 1.84 1.78 2.11
0.28 0.28 0.34 0.38 0.45 0.44 0.39 0.43 0.57 0.70 0.81 0.96 1.14 1.16 1.38 1.52 1.45 1.49 1.55 1.61 1.65 1.77 1.82 1.95 2.30 2.36 2.19 2.06 2.24 2.22 2.12 1.91 1.83 1.92 2.05 2.27 2.33 2.11 2.02 2.03 1.93 1.83 1.74
0.25 0.20 0.23 0.27 0.37 0.46 0.49 0.53 0.66 0.85 0.96 1.07 1.25 1.29 1.37 1.40 1.41 1.37 1.58 1.72 1.69 1.84 1.90 2.05 2.35 2.60 2.36 2.16 2.50 2.96 2.73 2.44 2.09 1.86 1.89 1.94 2.17 2.14 1.97 1.85 1.78 1.77 1.73
0.18 0.15 0.19 0.28 0.43 0.59 0.75 0.98 1.24 1.54 1.70 1.61 1.50 1.57 1.66 1.71 1.65 1.62 1.72 1.88 1.84 1.90 2.00 2.03 2.13 2.63 2.80 2.55 2.47 3.02 2.89 2.68 2.65 2.11 1.70 1.59 1.85 2.02 2.01 1.88 1.83 1.91 1.91
0.22 0.29 0.38 0.50 0.67 0.83 1.03 1.25 1.52 1.78 1.98 2.01 2.08 2.12 2.08 2.00 1.88 1.77 1.81 1.91 1.95 2.02 1.99 1.82 1.97 2.45 2.96 3.03 2.79 2.54 2.36 2.31 2.51 2.42 1.86 1.54 1.60 1.78 1.98 1.86 1.85 1.96 2.02
0.40 0.54 0.65 0.89 1.05 1.20 1.26 1.34 1.54 1.65 1.73 1.85 2.03 2.10 2.11 2.04 1.92 1.77 1.73 1.87 1.98 2.03 2.03 2.06 2.22 2.51 2.80 3.07 3.04 2.78 2.47 2.22 1.84 2.04 2.06 1.84 1.58 1.49 1.58 1.70 1.84 1.89 1.96
0.71 0.95 1.09 1.22 1.33 1.33 1.29 1.28 1.39 1.52 1.63 1.74 1.90 1.98 1.93 1.82 1.79 1.72 1.70 1.74 1.74 1.83 1.92 2.09 2.32 2.45 2.63 2.85 2.91 2.63 2.45 2.35 2.14 1.97 1.81 1.88 1.85 1.55 1.41 1.40 1.52 1.69 1.77